{"data":{"norad_id":66885,"epoch":"2026-09-20T07:39:21.738240Z","epoch_age_seconds":100645,"freshness":"FRESH","line1":"1 66885U 25283H   26263.31900160  .00015307  00000+0  46325-3 0  9990","line2":"2 66885  53.1575 196.5285 0001630  77.2178 282.9007 15.34399810 45694","mean_motion":15.3439981,"eccentricity":0.000163,"inclination_deg":53.1575,"raan_deg":196.5285,"arg_perigee_deg":77.2178,"mean_anomaly_deg":282.9007,"bstar":0.00046325,"rev_number":4569,"period_min":93.847769702213,"perigee_km":461.588747876,"apogee_km":463.81886197841,"semimajor_km":6840.8408049272,"source":"CELESTRAK","updated_at":"2026-09-21T09:00:36.033375Z"}}